Powrót do katalogu

STARLINK-30422

AktywnyŁącznośćVLEO
NORAD 57826·PAYLOAD·🇺🇸 United States

Wystrzelony Sep 9, 2023 z Cape Canaveral Space Force Station

Loading…

Następne Przeloty (najbliższe 24 godziny)

TLE

ŚwieżeSource: CelesTrak SupGP

Epoka: Sep 14, 2026, 22:17 UTC

1 57826C 23138U   26257.92895833  .00029941  00000+0  10846-2 0  2576
2 57826  43.0022 245.5215 0001318 264.9071 298.3345 15.27560390    10

Śledź STARLINK-30422 w czasie rzeczywistym z AllMySat

Download on the App Store